User: anonymous   Login
Location: Norderney
(53.7000°N, 7.1500°E)
Time: 02:38:09
(UTC+02:00)
Language:

ISS - Orbit

View from above orbital plane
View from above orbital plane
View from above satellite
View from above satellite

Ground track
Ground track

The orbit data is extracted from the following two-line orbital elements,

1 25544U 98067A   21208.81715953 -.00007322  00000-0 -12556-3 0  9990
2 25544  51.6429 141.8076 0001308 219.8410 240.5543 15.48856467294892
Epoch (UTC): 27 July 2021 19:36:42
Eccentricity: 0.0001308
inclination: 51.6429°
perigee height: 419 km
apogee height: 421 km
right ascension of ascending node: 141.8076°
argument of perigee: 219.8410°
revolutions per day: 15.48856467
mean anomaly at epoch: 240.5543°
orbit number at epoch: 29489

The dashed part of the orbit path shows where the satellite is in the earth's shadow,  

DLR